Time,TemperatureF,DewpointF,PressureIn,WindDirection,WindDirectionDegrees,WindSpeedMPH,WindSpeedGustMPH,Humidity,HourlyPrecipIn,Conditions,Clouds,dailyrainin,SoftwareType,DateUTC
2013-08-31 09:06:00,63.7,49.5,-100.00,NNW,342,0.0,4.0,60,0.00,,,0.00,VWS V14.01,2013-08-31 16:06:00,
2013-08-31 09:11:00,61.0,50.0,-100.00,WSW,241,0.0,4.9,67,0.00,,,0.00,VWS V14.01,2013-08-31 16:11:00,
2013-08-31 09:16:00,61.7,50.2,-100.00,South,191,0.0,4.9,66,0.00,,,0.00,VWS V14.01,2013-08-31 16:16:00,
2013-08-31 09:21:00,62.6,49.8,-100.00,SSE,150,2.7,4.9,63,0.00,,,0.00,VWS V14.01,2013-08-31 16:21:00,
2013-08-31 09:26:00,63.3,48.8,-100.00,SSE,147,4.0,4.9,59,0.00,,,0.00,VWS V14.01,2013-08-31 16:26:00,
2013-08-31 09:31:00,63.9,49.3,-100.00,South,174,2.7,5.4,59,0.00,,,0.00,VWS V14.01,2013-08-31 16:31:00,
2013-08-31 09:36:00,64.2,48.7,-100.00,South,191,0.0,5.4,57,0.00,,,0.00,VWS V14.01,2013-08-31 16:36:00,
2013-08-31 09:41:00,64.4,49.8,-100.00,SE,143,2.7,5.4,59,0.00,,,0.00,VWS V14.01,2013-08-31 16:41:00,
2013-08-31 09:46:00,64.8,48.7,-100.00,SSE,158,3.6,5.4,56,0.00,,,0.00,VWS V14.01,2013-08-31 16:46:00,
2013-08-31 09:51:00,65.1,48.6,-100.00,SW,231,0.0,5.4,55,0.00,,,0.00,VWS V14.01,2013-08-31 16:51:00,
2013-08-31 09:56:00,65.5,49.4,-100.00,SSE,168,3.1,5.4,56,0.00,,,0.00,VWS V14.01,2013-08-31 16:56:00,
2013-08-31 10:01:00,65.7,48.1,-100.00,SSE,155,0.0,3.1,53,0.00,,,0.00,VWS V14.01,2013-08-31 17:01:00,
2013-08-31 10:06:00,66.0,47.9,-100.00,SW,223,0.0,3.1,52,0.00,,,0.00,VWS V14.01,2013-08-31 17:06:00,
2013-08-31 10:11:00,66.6,48.4,-100.00,SSE,152,3.6,4.9,52,0.00,,,0.00,VWS V14.01,2013-08-31 17:11:00,
2013-08-31 10:16:00,66.7,48.1,-100.00,SW,227,0.0,4.9,51,0.00,,,0.00,VWS V14.01,2013-08-31 17:16:00,
2013-08-31 10:55:00,66.9,47.2,-100.00,West,268,0.0,4.9,49,0.00,,,0.00,VWS V14.01,2013-08-31 17:55:00,
2013-08-31 11:00:00,70.5,46.3,-100.00,SSE,165,0.0,0.0,42,0.00,,,0.00,VWS V14.01,2013-08-31 18:00:00,
2013-08-31 11:05:00,71.2,45.7,-100.00,SSE,151,0.0,4.0,40,0.00,,,0.00,VWS V14.01,2013-08-31 18:05:00,
2013-08-31 11:10:00,71.6,45.4,-100.00,SE,125,0.0,4.0,39,0.00,,,0.00,VWS V14.01,2013-08-31 18:10:00,
2013-08-31 11:15:00,72.1,45.2,-100.00,SW,233,3.1,4.0,38,0.00,,,0.00,VWS V14.01,2013-08-31 18:15:00,
2013-08-31 11:20:00,72.9,45.8,-100.00,SSW,204,0.0,4.9,38,0.00,,,0.00,VWS V14.01,2013-08-31 18:20:00,
2013-08-31 11:25:00,73.0,45.2,-100.00,ENE,69,0.0,4.9,37,0.00,,,0.00,VWS V14.01,2013-08-31 18:25:00,
2013-08-31 11:30:00,73.4,45.6,-100.00,SSE,165,0.0,4.9,37,0.00,,,0.00,VWS V14.01,2013-08-31 18:30:00,
2013-08-31 11:31:00,73.6,45.7,-100.00,SSE,151,3.6,4.9,37,0.00,,,0.00,VWS V14.01,2013-08-31 18:31:00,
2013-08-31 21:48:00,73.6,45.7,-100.00,SSE,151,3.6,4.9,37,0.00,,,0.00,VWS V14.01,2013-09-01 04:48:00,
2013-08-31 21:53:00,72.3,40.0,-100.00,NNW,332,2.2,4.9,31,0.00,,,0.00,VWS V14.01,2013-09-01 04:53:00,
2013-08-31 21:58:00,72.1,39.9,-100.00,North,353,0.0,4.9,31,0.00,,,0.00,VWS V14.01,2013-09-01 04:58:00,
2013-08-31 22:03:00,72.1,39.9,-100.00,North,350,0.0,0.0,31,0.00,,,0.00,VWS V14.01,2013-09-01 05:03:00,
2013-08-31 22:08:00,72.0,40.5,-100.00,NNW,340,0.0,0.0,32,0.00,,,0.00,VWS V14.01,2013-09-01 05:08:00,
2013-08-31 22:13:00,71.8,40.4,-100.00,NNW,335,0.0,3.6,32,0.00,,,0.00,VWS V14.01,2013-09-01 05:13:00,
2013-08-31 22:18:00,71.6,40.2,-100.00,NW,307,0.0,3.6,32,0.00,,,0.00,VWS V14.01,2013-09-01 05:18:00,
2013-08-31 22:23:00,71.4,40.0,-100.00,NNW,334,0.0,3.6,32,0.00,,,0.00,VWS V14.01,2013-09-01 05:23:00,
2013-08-31 22:28:00,71.2,39.9,-100.00,NNW,327,0.0,3.6,32,0.00,,,0.00,VWS V14.01,2013-09-01 05:28:00,
2013-08-31 22:33:00,70.9,39.6,-100.00,NNW,327,0.0,3.6,32,0.00,,,0.00,VWS V14.01,2013-09-01 05:33:00,
2013-08-31 22:34:00,70.9,39.6,-100.00,NNW,327,0.0,3.6,32,0.00,,,0.00,VWS V14.01,2013-09-01 05:34:00,
2013-08-31 22:39:00,70.5,39.3,-100.00,NNW,327,0.0,3.6,32,0.00,,,0.00,VWS V14.01,2013-09-01 05:39:00,
2013-08-31 22:44:00,70.3,39.9,-100.00,NNW,327,0.0,3.6,33,0.00,,,0.00,VWS V14.01,2013-09-01 05:44:00,